IRIDIUM 137

Last updated on Sun Jun 21 2026 00:03:14 GMT+0000 (Coordinated Universal Time)

1 43076U 17083G 26171.41799994 .00000000 00000+0 -70974-5 0 9990 2 43076 86.3967 320.8092 0002244 103.8470 256.2976 14.34217468444638
UTC large
Height (km)
Speed (km/s)
/
Latitude / Longitude
Inclination (degrees)
Orbital Period (minutes)
Azimuth
Elevation
Range (km)
Doppler Factor

Next 0 passes for location: London (51.5072 / 0.1276)

No passes found over London.
IRIDIUM 137